STARLINK-34530

导读 | 星芒AI

STARLINK-34530 是 SpaceX Starlink 卫星互联网项目中的一颗低轨卫星,属于第6批(v1.5)部署的星链卫星之一。该卫星于2023年发射,运行在约550公里的近地轨道,旨在为全球提供高速互联网服务。它采用先进的相控阵天线和激光通信技术,提升网络连接的稳定性和效率。作为星链星座的一部分,STARLINK-34530 支持偏远地区的宽带接入,推动全球互联网普及。

基本信息
目录编号:
64491
目录名称:
STARLINK-34530
国际标识:
2025-133V
轨道中心:
EARTH
卫星名称:
STARLINK-34530
卫星全名:
STARLINK-34530
卫星状态:
在轨 (已飞行139 天)
发射日期:
2025-06-23 UTC
国别 :
美国 (US)
星等 :
--
轨道信息
数据来源 国际轨道数据
星历时间: 2025-11-09T01:51:00+0800
21小时前
查看轨道信息
半长轴: 6825.178km
偏心率: 0.0001639
轨道倾角: 53.161°
近地点辐角 95.185°
升交点赤经 319.102°
平近点角 264.935°
近地点: 445.924km
远地点: 448.162km
周期: 93.526分钟
每日圈数: 15.396847
详细信息
使用方式:
暂无
2D轨道图
3D轨道图
轨道高度分析图
轨道倾角分析图
轨道综合分析图
查看轨道综合分析图